THORAD AGENA D DEB, 4689

Orbit data source: Space-Track

THORAD AGENA D DEB, 4689 is space debris in SSO originally from a launch on Wed, 08 Apr 1970 UTC launched from the Air Force Western Test Range (AFWTR). Debris objects in space refer to the collection of defunct objects orbiting the Earth. Examples of debris include non-operational satellites, rocket bodies, and fragments generated from explosions, collisions, or faulty payload assembly.

Loading next visibility...
Identifier
4689, 1970-025BN
Orbit
SSO
Country
Flag of USUS
Related business
Manufacturer
Unknown
Mission
Spacecraft
Bus & Motor
Unknown
Mass
Unknown
Launch date (UTC)
1970-04-08 (56 years ago)
Launch vehicle
Unknown
Launch site
Air Force Western Test Range (AFWTR)
Object type
Payload
Rocket body
Debris
Shape & HBR
Unknown shape, 0.1 m
Radar Cross Section
Small (<0.1 m²)

Expand to show TLE details & history
Last TLE update: 6 hours ago

TLE from 6 hours ago
0 THORAD AGENA D DEB
1 04689U 70025BN  25300.31080194  .00000346  00000-0  54698-3 0  9995
2 04689  99.3698 141.0390 0068923 247.6417 292.7032 13.55990104738853
Epoch: 2025-10-27T07:27Z
TLE epoch observation values (Epoch: 2025-10-27T07:27:33.287Z)
Latitude
0.27007°
Longitude
173.28016°
Altitude
1,033.609 km
Speed
7.345 km/s
True Right ascension
21h 24m 20s
True Declination
0° 16' 07"
Sunlit
Object was in daylight at epoch
Visualization orbit readout
Latitude
Unknown
Longitude
Unknown
Altitude
Unknown
Speed
Unknown
Apparent Right ascension
Unknown
Apparent Declination
Unknown
Sunlit
N/A
Visualization observer readout
Local Sidereal Time
09:07:08
Azimuth
Unknown
Elevation
Unknown
Doppler factor
Unknown
Orbital elements
Apogee altitude
1,098.758 km
Perigee altitude
996.397 km
Semi-major axis
7,425.714 km
Eccentricity
0.00689
Inclination
99.3698°
RAAN
141.039°
Arg. of periapsis
247.6417°
True anomaly
291.97219°
Mean anomaly
292.7032°
Eccentric anomaly
292.33793°
Mean motion
3.39184 °/min
Orbital period
106.14 mins
BSTAR
0.00054698
Loading maneuver chart data...
Computing Atmospheric mass density...

Documentation

Showing up to 5 results
|